This is the latest recevied weather packets stored in our database for station/object NorthRyde. If no packets are shown the sender has not sent any weather packets the latest 1 day(s).
| Time | Temp. | Humidity | Pressure | Rain* | Wind** | Luminosity | Snow |
|---|---|---|---|---|---|---|---|
| 1778036949 | 22.22° C | 58% | 1018.8 hPa | 0 mm | - | 116 W/m² | - |
| 1778036890 | 22.22° C | 58% | 1018.8 hPa | 0 mm | - | 116 W/m² | - |
| 1778036830 | 22.22° C | 58% | 1018.8 hPa | 0 mm | - | 114 W/m² | - |
| 1778036531 | 22.78° C | 58% | 1019.1 hPa | 0 mm | - | 109 W/m² | - |
| 1778036352 | 22.78° C | 58% | 1019.1 hPa | 0 mm | - | 594 W/m² | - |
| 1778036290 | 22.78° C | 59% | 1019.1 hPa | 0 mm | - | 598 W/m² | - |
| 1778036232 | 22.78° C | 59% | 1019.2 hPa | 0 mm | - | 603 W/m² | - |
| 1778036170 | 22.22° C | 59% | 1019.1 hPa | 0 mm | - | 598 W/m² | - |
| 1778036114 | 22.22° C | 60% | 1019 hPa | 0 mm | - | 587 W/m² | - |
| 1778036051 | 22.22° C | 59% | 1019 hPa | 0 mm | - | 587 W/m² | - |
| 1778035991 | 22.22° C | 60% | 1019.2 hPa | 0 mm | - | 580 W/m² | - |
| 1778035932 | 22.22° C | 60% | 1019.1 hPa | 0 mm | - | 578 W/m² | - |
| 1778035692 | 22.22° C | 58% | 1019.2 hPa | 0 mm | - | 578 W/m² | - |
| 1778035633 | 22.78° C | 58% | 1019.2 hPa | 0 mm | - | 584 W/m² | - |
| 1778035571 | 22.78° C | 58% | 1019.2 hPa | 0 mm | - | 580 W/m² | - |
| 1778035512 | 22.78° C | 59% | 1019.2 hPa | 0 mm | - | 577 W/m² | - |
| 1778035452 | 22.22° C | 59% | 1019.2 hPa | 0 mm | - | 575 W/m² | - |
| 1778035390 | 22.22° C | 59% | 1019.3 hPa | 0 mm | - | 577 W/m² | - |
| 1778035348 | 22.22° C | 59% | 1019.3 hPa | 0 mm | - | 578 W/m² | - |
| 1778035270 | 22.22° C | 58% | 1019.3 hPa | 0 mm | - | 584 W/m² | - |
| 1778035151 | 22.22° C | 58% | 1019.3 hPa | 0 mm | - | 589 W/m² | - |
| 1778035088 | 22.22° C | 59% | 1019.4 hPa | 0 mm | - | 594 W/m² | - |
| 1778035024 | 22.22° C | 59% | 1019.4 hPa | 0 mm | - | 621 W/m² | - |
| 1778034965 | 22.22° C | 60% | 1019.4 hPa | 0 mm | - | 619 W/m² | - |
| 1778034901 | 21.67° C | 59% | 1019.5 hPa | 0 mm | - | 202 W/m² | - |
* Rain latest hour (hover to see other rain measurements)
** Current wind speed in m/s (hover to see current wind gust speed)